TimeAKDT,TemperatureF,Dew PointF,Humidity,Sea Level PressureIn,VisibilityMPH,Wind Direction,Wind SpeedMPH,Gust SpeedMPH,PrecipitationIn,Events,Conditions,WindDirDegrees,DateUTC
12:19 AM,37.4,37.4,100,29.60,10.0,SSW,2.3,-,N/A,,Light Drizzle,200,2013-09-11 08:19:00
12:44 AM,37.4,37.4,100,29.60,4.0,SSW,2.3,-,N/A,Rain,Light Rain Showers,200,2013-09-11 08:44:00
12:55 AM,37.4,37.8,100,29.60,10.0,SSW,2.3,-,N/A,,Mostly Cloudy,210,2013-09-11 08:55:00
1:09 AM,-9999,-9999,N/A,29.60,10.0,WSW,2.3,-,N/A,Rain,Light Rain Showers,250,2013-09-11 09:09:00
1:34 AM,39.2,39.2,100,29.60,1.5,WSW,4.6,-,N/A,Rain,Light Rain Showers,250,2013-09-11 09:34:00
1:55 AM,39.0,39.6,100,29.60,1.5,West,3.5,-,N/A,Rain,Light Rain Showers,280,2013-09-11 09:55:00
2:39 AM,39.2,39.2,100,29.60,10.0,West,3.5,-,N/A,Rain,Light Rain Showers,260,2013-09-11 10:39:00
2:55 AM,39.4,39.9,100,29.60,10.0,West,3.5,-,N/A,,Light Drizzle,280,2013-09-11 10:55:00
3:44 AM,39.2,39.2,100,29.60,10.0,West,6.9,-,N/A,,Drizzle,280,2013-09-11 11:44:00
3:55 AM,39.9,39.9,100,29.60,10.0,West,5.8,-,0.00,Rain,Light Rain,280,2013-09-11 11:55:00
4:09 AM,41.0,39.2,93,29.60,10.0,WNW,5.8,-,N/A,Rain,Light Rain,290,2013-09-11 12:09:00
4:55 AM,40.5,40.3,99,29.60,10.0,NW,5.8,-,N/A,,Drizzle,310,2013-09-11 12:55:00
5:54 AM,41.0,39.2,93,29.60,10.0,WNW,6.9,-,N/A,,Light Drizzle,290,2013-09-11 13:54:00
5:55 AM,40.5,39.7,97,29.60,10.0,WNW,8.1,-,0.00,,Light Drizzle,290,2013-09-11 13:55:00
6:20 AM,41.0,39.2,93,29.59,10.0,WNW,8.1,-,N/A,,Light Drizzle,300,2013-09-11 14:20:00
6:55 AM,40.6,39.9,97,29.59,10.0,WNW,9.2,-,N/A,Rain,Light Rain Showers,300,2013-09-11 14:55:00
7:25 AM,41.0,39.2,93,29.59,9.0,WNW,10.4,-,N/A,,Overcast,290,2013-09-11 15:25:00
7:50 AM,41.0,39.2,93,29.59,8.0,WNW,9.2,15.0,N/A,Rain,Light Rain Showers,290,2013-09-11 15:50:00
7:55 AM,40.5,39.9,98,29.59,9.0,WNW,6.9,15.0,N/A,Rain,Light Rain Showers,290,2013-09-11 15:55:00
8:20 AM,41.0,39.2,93,29.59,10.0,West,6.9,-,N/A,Rain,Light Rain Showers,280,2013-09-11 16:20:00
8:45 AM,41.0,39.2,93,29.59,10.0,West,8.1,-,N/A,Rain,Light Rain Showers,270,2013-09-11 16:45:00
8:55 AM,41.0,39.6,95,29.59,10.0,West,9.2,-,N/A,,Overcast,280,2013-09-11 16:55:00
9:30 AM,41.0,39.2,93,29.59,5.0,WNW,15.0,-,N/A,Rain,Light Rain Showers,290,2013-09-11 17:30:00
9:55 AM,39.7,39.4,99,29.60,1.8,WNW,18.4,-,N/A,,Drizzle,300,2013-09-11 17:55:00
10:15 AM,39.2,39.2,100,29.60,6.0,WNW,17.3,-,N/A,,Light Drizzle,300,2013-09-11 18:15:00
10:40 AM,39.2,39.2,100,29.61,10.0,WNW,17.3,-,N/A,,Drizzle,300,2013-09-11 18:40:00
10:55 AM,39.4,38.7,97,29.61,10.0,WNW,18.4,-,N/A,,Light Drizzle,300,2013-09-11 18:55:00
11:25 AM,39.2,39.2,100,29.61,10.0,NW,17.3,-,N/A,,Light Drizzle,310,2013-09-11 19:25:00
11:50 AM,39.2,37.4,93,29.62,10.0,NW,15.0,-,N/A,,Overcast,310,2013-09-11 19:50:00
11:55 AM,39.7,38.1,94,29.62,10.0,WNW,11.5,-,0.00,,Overcast,300,2013-09-11 19:55:00
12:20 PM,39.2,37.4,93,29.63,10.0,WNW,10.4,-,N/A,,Overcast,290,2013-09-11 20:20:00
12:45 PM,39.2,37.4,93,29.63,10.0,West,12.7,-,N/A,,Drizzle,280,2013-09-11 20:45:00
12:55 PM,39.7,37.2,91,29.64,10.0,WNW,10.4,19.6,N/A,Rain,Light Rain,290,2013-09-11 20:55:00
1:30 PM,39.2,35.6,87,29.64,10.0,WSW,13.8,18.4,N/A,,Overcast,240,2013-09-11 21:30:00
1:55 PM,39.9,36.3,87,29.64,10.0,West,9.2,-,N/A,,Mostly Cloudy,260,2013-09-11 21:55:00
2:15 PM,41.0,33.8,76,29.64,10.0,WSW,13.8,26.5,N/A,,Mostly Cloudy,250,2013-09-11 22:15:00
2:55 PM,40.1,33.8,78,29.65,10.0,WSW,11.5,23.0,N/A,,Mostly Cloudy,250,2013-09-11 22:55:00
3:55 PM,40.6,35.2,81,29.65,10.0,West,10.4,23.0,N/A,,Mostly Cloudy,270,2013-09-11 23:55:00
4:55 PM,40.5,35.6,83,29.66,10.0,WNW,10.4,19.6,N/A,,Overcast,290,2013-09-12 00:55:00
5:55 PM,41.0,33.6,75,29.67,10.0,SW,13.8,25.3,N/A,,Mostly Cloudy,230,2013-09-12 01:55:00
6:55 PM,41.2,34.5,77,29.68,10.0,Variable,3.5,-,N/A,,Overcast,0,2013-09-12 02:55:00
7:55 PM,41.2,34.2,76,29.68,10.0,WNW,8.1,16.1,N/A,,Overcast,300,2013-09-12 03:55:00
8:55 PM,41.2,34.5,77,29.70,10.0,WNW,8.1,-,N/A,,Overcast,300,2013-09-12 04:55:00
9:55 PM,41.2,33.8,75,29.70,10.0,WNW,9.2,-,N/A,,Overcast,300,2013-09-12 05:55:00
10:55 PM,41.0,34.3,77,29.72,10.0,SW,2.3,-,N/A,,Overcast,230,2013-09-12 06:55:00
11:55 PM,40.8,36.1,83,29.73,10.0,South,5.8,-,N/A,,Mostly Cloudy,190,2013-09-12 07:55:00